TimePST,TemperatureF,Dew PointF,Humidity,Sea Level PressureIn,VisibilityMPH,Wind Direction,Wind SpeedMPH,Gust SpeedMPH,PrecipitationIn,Events,Conditions,WindDirDegrees,DateUTC
12:52 AM,21.9,15.1,75,30.16,10.0,Calm,Calm,-,N/A,,Clear,0,2014-02-20 08:52:00
1:52 AM,21.0,15.1,78,30.18,10.0,Calm,Calm,-,N/A,,Clear,0,2014-02-20 09:52:00
2:52 AM,19.9,15.1,81,30.19,10.0,Calm,Calm,-,N/A,,Clear,0,2014-02-20 10:52:00
3:52 AM,19.9,14.0,78,30.19,10.0,Calm,Calm,-,N/A,,Clear,0,2014-02-20 11:52:00
4:52 AM,19.9,14.0,78,30.21,10.0,Calm,Calm,-,N/A,,Clear,0,2014-02-20 12:52:00
5:52 AM,19.0,12.9,77,30.25,10.0,Calm,Calm,-,N/A,,Clear,0,2014-02-20 13:52:00
6:52 AM,19.0,12.0,74,30.28,10.0,Calm,Calm,-,N/A,,Clear,0,2014-02-20 14:52:00
7:52 AM,21.9,17.1,82,30.29,10.0,Calm,Calm,-,N/A,,Clear,0,2014-02-20 15:52:00
8:52 AM,28.9,19.0,67,30.26,10.0,Calm,Calm,-,N/A,,Clear,0,2014-02-20 16:52:00
9:52 AM,37.9,15.1,39,30.22,10.0,Calm,Calm,-,N/A,,Clear,0,2014-02-20 17:52:00
10:13 AM,42.1,14.0,32,30.20,4.0,Calm,Calm,-,N/A,,Haze,0,2014-02-20 18:13:00
10:20 AM,43.0,12.0,28,30.20,1.8,Calm,Calm,-,N/A,,Haze,0,2014-02-20 18:20:00
10:28 AM,44.1,10.9,26,30.20,3.0,Calm,Calm,-,N/A,,Haze,0,2014-02-20 18:28:00
10:52 AM,46.0,12.9,26,30.18,7.0,Calm,Calm,-,N/A,,Clear,0,2014-02-20 18:52:00
11:52 AM,50.0,12.9,23,30.16,10.0,Calm,Calm,-,N/A,,Clear,0,2014-02-20 19:52:00
12:52 PM,52.0,15.1,23,30.12,10.0,East,8.1,-,N/A,,Clear,100,2014-02-20 20:52:00
1:52 PM,54.0,16.0,22,30.10,10.0,SSW,13.8,23.0,N/A,,Clear,210,2014-02-20 21:52:00
2:52 PM,53.1,16.0,23,30.10,10.0,SW,13.8,-,N/A,,Clear,230,2014-02-20 22:52:00
3:52 PM,50.0,19.9,31,30.12,10.0,SW,10.4,20.7,N/A,,Clear,230,2014-02-20 23:52:00
4:52 PM,48.0,21.9,36,30.13,10.0,WSW,11.5,-,N/A,,Clear,250,2014-02-21 00:52:00
5:52 PM,43.0,23.0,45,30.16,10.0,West,6.9,-,N/A,,Scattered Clouds,280,2014-02-21 01:52:00
6:52 PM,39.0,23.0,53,30.19,10.0,NNW,9.2,-,N/A,,Clear,330,2014-02-21 02:52:00
7:52 PM,36.0,21.0,55,30.19,10.0,Variable,6.9,-,N/A,,Clear,0,2014-02-21 03:52:00
8:52 PM,33.1,19.9,59,30.19,10.0,Calm,Calm,-,N/A,,Clear,0,2014-02-21 04:52:00
9:52 PM,32.0,19.0,59,30.16,10.0,NNW,6.9,-,N/A,,Mostly Cloudy,340,2014-02-21 05:52:00
10:52 PM,28.0,18.0,66,30.14,10.0,NNW,3.5,-,N/A,,Clear,340,2014-02-21 06:52:00
11:52 PM,26.1,18.0,71,30.13,10.0,Calm,Calm,-,N/A,,Clear,0,2014-02-21 07:52:00